Regional Weather Roundup
Issued by NWS Sterling, VA

Home | Current Version | Previous Version | Text Only | Print | Product List | Glossary On
Versions: 1 2 3 4 5 6 7 8 9 10 11 12 13 14 15 16 17 18 19 20 21 22 23 24 25 26 27
000
ASUS41 KLWX 260110
RWRLWX

REGIONAL WEATHER ROUNDUP
NATIONAL WEATHER SERVICE BALTIMORE MD/WASHINGTON DC
800 PM EST SAT FEB 25 2017

Note: "FAIR" indicates few or no clouds below 12,000 feet
with no significant weather and/or obstructions to visibility.
 TC=TEMPERATURE CELSIUS

 * =Non NWS site. Station does not report precipitation (e.g. rain,
    snow, etc.), thunder, or fog.

DCZ001-MDZ009-015-VAZ040>042-051-053>054-260200-
WASHINGTON METRO

CITY           SKY/WX    TMP DP  RH WIND       PRES   REMARKS
WASHINGTON NAT PTCLDY    55  31  39 NW14      29.66R
DULLES         PTCLDY    51  26  37 NW20G35   29.66R
ANDREWS AFB    MOCLDY    53  36  53 NW15      29.63R
FT BELVOIR     PTCLDY    55  31  41 NW14G21   29.64R
QUANTICO       CLOUDY    56  35  45 NW12G28   29.67R
COLLEGE PARK*  CLEAR     52  32  46 W13G22    29.66R
LEESBURG*      CLEAR     50  32  50 MISG      29.69R
MANASSAS*      PTCLDY    52  30  43 NW15      29.67R
GAITHERSBURG*  CLEAR     48  28  46 NW13G21   29.70R

$$

MDZ006>007-011-014-260200-
BALTIMORE METRO

CITY           SKY/WX    TMP DP  RH WIND       PRES   REMARKS
BWI AIRPORT    PTCLDY    51  36  56 NW13      29.64R
MD SCIENCE CTR   N/A     54  35  48 MISG      29.64R
MARTIN STATE   CLOUDY    54  43  66 W10       29.66R
ANNAPOLIS      PTCLDY    54  39  57 NW7       29.65R
FORT MEADE*    PTCLDY    50  34  53 NW13G21   29.68R

$$

MDZ012-015-019>023-260200-
MARYLAND EASTERN SHORE

CITY           SKY/WX    TMP DP  RH WIND       PRES   REMARKS
OCEAN CITY     CLOUDY    53  48  83 N14G24    29.62R
SALISBURY      CLOUDY    53  48  83 N12       29.62R
BAY BRIDGE AP* CLOUDY    52  41  66 NW7       29.65R
CAMBRIDGE*     CLOUDY    54  45  71 N8        29.63R
EASTON*        PTCLDY    54  37  54 N12G18    29.67R

$$

MDZ017>025-260200-
SOUTHERN MARYLAND

CITY           SKY/WX    TMP DP  RH WIND       PRES   REMARKS
PATUXENT RIVER MOCLDY    54  44  69 NW13      29.63R
ST INIGOES     CLOUDY    55  43  63 NW6       29.63R
LEONARDTOWN*   CLOUDY    52  41  66 NW3       29.66R

$$

MDZ003>005-260200-
NORTH CENTRAL MARYLAND

CITY           SKY/WX    TMP DP  RH WIND       PRES   REMARKS
FREDERICK*     CLEAR     48  28  46 W21G35    29.72R
HAGERSTOWN APT CLOUDY    47  28  47 NW22G28   29.71R
WESTMINSTER*   CLEAR     48  34  57 NW18G25   29.66R

$$

MDZ501>502-260200-
WESTERN MARYLAND

CITY           SKY/WX    TMP DP  RH WIND       PRES   REMARKS
OAKLAND*       CLOUDY    30  19  64 W22G32    29.73R WCI  17
CUMBERLAND*    CLOUDY    43  23  45 W15G26    29.82R

$$

VAZ025>031-260200-
SHENANDOAH VALLEY

CITY           SKY/WX    TMP DP  RH WIND       PRES   REMARKS
WINCHESTER*    CLEAR     45  23  42 W22G28    29.71R
FRONT ROYAL*   CLEAR     48  23  37 W9G25     29.70R
LURAY*         CLEAR     48  25  40 W23G31    29.73R
NEW MARKET*    CLEAR     46  18  31 W9G21     29.75R
STAUNTON*      CLEAR     45  23  40 W17       29.77R
WAYNESBORO*    CLEAR     46  20  35 W8G20     29.73R

$$

WVZ021-048>050-054>055-260200-
EASTERN WEST VIRGINIA PANHANDLE

CITY           SKY/WX    TMP DP  RH WIND       PRES   REMARKS
MARTINSBURG    PTCLDY    47  23  38 W24G30    29.72R
PETERSBURG*    MOCLDY    44  24  45 W16G30    29.81R

$$

VAZ036>039-050-260200-
CENTRAL FOOTHILLS

CITY           SKY/WX    TMP DP  RH WIND       PRES   REMARKS
CHARLOTTESVILL CLEAR     54  22  28 W10G21    29.69R
CULPEPER*      CLEAR     55  27  34 NW7G18    29.68R
ORANGE*        CLEAR     52  27  37 W17G29    29.68R
GORDONSVILLE*  CLEAR     53  24  32 W5        29.67R
WARRENTON*     CLEAR     53  23  30 NW17G24   29.66R

$$

VAZ055>057-260200-
NORTH AND CENTRAL PIEDMONT

CITY           SKY/WX    TMP DP  RH WIND       PRES   REMARKS
FREDERICKSBRG* CLOUDY    59  32  36 W10G16    29.66R
STAFFORD*      CLOUDY    54  36  49 NW6       29.71R

$$

NCZ024-NYZ072-PAZ021-071-VAZ022-071-260200-
OTHER REGIONAL OBSERVATIONS

CITY           SKY/WX    TMP DP  RH WIND       PRES   REMARKS
NEW YORK CITY  LGT RAIN  50  45  83 W7G28     29.61R
PHILADELPHIA   LGT RAIN  52  45  77 NW8       29.63S
PITTSBURGH     FLURRIES  32  20  61 W15G24    29.86R WCI  22
ROANOKE        PTCLDY    48  21  34 NW17G26   29.83R
RICHMOND       MOCLDY    59  36  42 NW20G26   29.64R
RALEIGH        PTCLDY    65  23  20 NW10G20   29.72R

$$

ANZ530>537-260200-
MARINE OBSERVATIONS

STATION/POSITION TIME  TEMP    WIND        PRES
                       AIR SEA DIR/SP/G
                 (UTC) (F)     (DEG/KT/KT) (MB)
THOMAS PT LIGHT  0000   55 45  320/ 13/ 15   N/A
BALT KEY BRIDGE  0048   54     310/ 10/ 13 1003.7R
COVE POINT       0048   48      10/  5/ 11 1003.6S
LEWISETTA        0048   53 51  350/  4/  6 1003.3R
SOLOMONS ISLAND  0048   55 45  320/  5/ 11   N/A
PINEY POINT      0048          360/  8/  9   N/A

$$





USA.gov is the U.S. government's official web portal to all federal, state and local government web resources and services.